N6OIM Weather Reports


Display with metric or nautical units.
time (UTC)temp
F
wind
direction
speed
MPH
gust
MPH
rain 1hr
in
rain 24hr
in
rain mn
in
humidity
%
barometer
mb
20260902070822 62 117 0.0 0.0 0.00 0.00 0.00 72 1014.7
20260902070332 62 117 0.0 0.0 0.00 0.00 0.00 72 1014.7
20260902065823 62 121 0.0 0.0 0.00 0.00 0.00 72 1014.6
20260902065333 62 122 0.0 0.0 0.00 0.00 0.00 71 1014.8
20260902064825 62 122 0.0 0.0 0.00 0.00 0.00 71 1014.7
20260902064318 62 127 0.0 0.0 0.00 0.00 0.00 71 1014.7
20260902063829 63 126 0.0 0.0 0.00 0.00 0.00 70 1014.8
20260902063318 63 127 0.0 0.0 0.00 0.00 0.00 70 1014.9
20260902062827 63 127 0.0 0.0 0.00 0.00 0.00 70 1015.0
20260902062316 63 176 0.0 0.0 0.00 0.00 0.00 70 1014.9
20260902061828 63 178 0.0 0.0 0.00 0.00 0.00 69 1015.0
20260902061316 63 178 0.0 0.0 0.00 0.00 0.00 68 1015.1
20260902060828 63 178 0.0 0.0 0.00 0.00 0.00 68 1015.1
20260902060321 64 178 0.0 0.0 0.00 0.00 0.00 68 1015.0
20260902055828 64 178 0.0 0.0 0.00 0.00 0.00 67 1015.0
20260902055317 64 178 0.0 0.0 0.00 0.00 0.00 67 1015.0
20260902054826 64 178 0.0 0.0 0.00 0.00 0.00 67 1014.9
20260902054337 64 178 0.0 0.0 0.00 0.00 0.00 67 1015.1
20260902053825 64 178 0.0 0.0 0.00 0.00 0.00 67 1015.0
20260902053318 64 244 0.0 0.0 0.00 0.00 0.00 66 1015.0
20260902052828 65 244 0.0 0.0 0.00 0.00 0.00 65 1014.9
20260902052324 65 244 0.0 0.0 0.00 0.00 0.00 65 1014.9
20260902051833 65 244 0.0 0.0 0.00 0.00 0.00 64 1014.8
20260902051324 65 244 0.0 0.0 0.00 0.00 0.00 64 1014.8
20260902050833 65 244 0.0 0.0 0.00 0.00 0.00 64 1014.9
20260902050322 65 244 0.0 0.0 0.00 0.00 0.00 63 1015.0
20260902045831 65 244 0.0 0.0 0.00 0.00 0.00 63 1014.9
20260902045319 65 244 0.0 0.0 0.00 0.00 0.00 63 1015.0
20260902044828 65 244 0.0 0.0 0.00 0.00 0.00 63 1015.0
20260902044318 66 244 0.0 0.0 0.00 0.00 0.00 62 1014.9
20260902043831 66 244 0.0 0.0 0.00 0.00 0.00 62 1014.9
20260902043324 66 244 0.0 0.0 0.00 0.00 0.00 62 1014.7
20260902042832 66 216 0.0 0.0 0.00 0.00 0.00 61 1014.7
20260902042322 66 215 0.0 0.0 0.00 0.00 0.00 61 1014.6
20260902041830 66 194 0.0 0.0 0.00 0.00 0.00 61 1014.5
20260902041319 67 241 0.0 0.0 0.00 0.00 0.00 60 1014.4
20260902040827 67 247 0.0 0.0 0.00 0.00 0.00 60 1014.4
20260902040337 67 247 0.0 0.0 0.00 0.00 0.00 60 1014.2
20260902035824 67 246 0.0 0.0 0.00 0.00 0.00 59 1014.1
20260902035317 67 242 0.0 0.0 0.00 0.00 0.00 59 1014.0
20260902034824 67 263 0.0 0.0 0.00 0.00 0.00 58 1013.9
20260902034334 68 260 0.0 0.0 0.00 0.00 0.00 58 1013.7
20260902033822 68 210 0.0 0.0 0.00 0.00 0.00 58 1013.6
20260902033332 68 291 0.0 0.0 0.00 0.00 0.00 57 1013.6
20260902032819 68 329 0.0 0.0 0.00 0.00 0.00 56 1013.6
20260902032329 68 253 0.0 0.0 0.00 0.00 0.00 57 1013.4
20260902031836 68 265 0.0 0.0 0.00 0.00 0.00 56 1013.4
20260902031324 69 259 0.0 0.0 0.00 0.00 0.00 55 1013.3
20260902030817 69 240 0.0 0.0 0.00 0.00 0.00 54 1013.2
20260902030325 69 286 0.0 0.0 0.00 0.00 0.00 54 1013.1
20260902025814 69 215 0.0 0.0 0.00 0.00 0.00 53 1013.1
20260902025325 69 213 0.0 0.0 0.00 0.00 0.00 52 1013.1
20260902024833 70 272 0.0 0.0 0.00 0.00 0.00 52 1012.9
20260902024321 70 279 0.0 0.0 0.00 0.00 0.00 51 1012.9
20260902023829 70 263 0.0 0.0 0.00 0.00 0.00 51 1012.9
20260902023319 70 259 0.0 0.0 0.00 0.00 0.00 50 1012.8
20260902022828 71 259 0.0 0.0 0.00 0.00 0.00 49 1012.8
20260902022320 71 251 0.0 0.0 0.00 0.00 0.00 49 1012.7
20260902021832 71 248 0.0 0.0 0.00 0.00 0.00 48 1012.7
20260902021324 72 248 0.0 0.0 0.00 0.00 0.00 48 1012.6
20260902020832 72 249 0.0 0.0 0.00 0.00 0.00 47 1012.6
20260902020325 72 234 0.0 0.0 0.00 0.00 0.00 46 1012.6
20260902015834 73 278 0.0 0.0 0.00 0.00 0.00 45 1012.6
20260902015323 74 257 0.0 0.0 0.00 0.00 0.00 45 1012.6
20260902014832 74 284 0.0 0.0 0.00 0.00 0.00 44 1012.5
20260902014326 75 238 0.0 0.0 0.00 0.00 0.00 44 1012.4
20260902013816 75 229 0.0 0.0 0.00 0.00 0.00 42 1012.3
20260902013330 76 243 0.0 0.0 0.00 0.00 0.00 42 1012.3
20260902012822 76 202 0.0 0.0 0.00 0.00 0.00 41 1012.4
20260902012332 77 229 0.0 0.0 0.00 0.00 0.00 41 1012.4
20260902011823 77 211 0.0 0.0 0.00 0.00 0.00 40 1012.3
20260902011332 77 219 0.0 0.0 0.00 0.00 0.00 40 1012.2
20260902010822 78 256 0.0 0.0 0.00 0.00 0.00 39 1012.2
20260902010332 78 252 0.0 0.0 0.00 0.00 0.00 39 1012.3
20260902005825 78 236 0.0 0.0 0.00 0.00 0.00 37 1012.3
20260902005334 79 271 0.0 0.0 0.00 0.00 0.00 38 1012.2
20260902004822 79 240 0.0 0.0 0.00 0.00 0.00 38 1012.2
20260902004332 79 199 0.0 0.0 0.00 0.00 0.00 38 1012.2
20260902003820 79 213 0.0 0.0 0.00 0.00 0.00 38 1012.3
20260902003330 79 296 0.0 0.0 0.00 0.00 0.00 38 1012.3
20260902002818 79 203 0.0 0.0 0.00 0.00 0.00 38 1012.3
20260902002328 79 278 0.0 0.0 0.00 0.00 0.00 37 1012.3
20260902001821 79 225 0.0 0.0 0.00 0.00 0.00 37 1012.4
20260902001329 80 221 0.0 0.0 0.00 0.00 0.00 36 1012.3
20260902000817 79 206 0.0 0.0 0.00 0.00 0.00 36 1012.4
20260902000330 79 241 0.0 0.0 0.00 0.00 0.00 37 1012.4
20260901235819 79 241 0.0 0.0 0.00 0.00 0.00 36 1012.3
20260901235328 79 237 0.0 0.0 0.00 0.00 0.00 36 1012.4
20260901234816 79 187 0.0 0.0 0.00 0.00 0.00 37 1012.3
20260901234328 79 126 0.0 0.0 0.00 0.00 0.00 37 1012.4
20260901233817 79 234 0.0 0.0 0.00 0.00 0.00 37 1012.5
20260901233330 79 247 0.0 0.0 0.00 0.00 0.00 37 1012.5
20260901232822 79 238 0.0 0.0 0.00 0.00 0.00 36 1012.6
20260901232332 79 209 0.0 0.0 0.00 0.00 0.00 37 1012.6
20260901231824 79 222 0.0 0.0 0.00 0.00 0.00 36 1012.6
20260901231333 79 142 0.0 0.0 0.00 0.00 0.00 36 1012.6
20260901230822 79 148 0.0 0.0 0.00 0.00 0.00 37 1012.8
20260901230332 79 211 0.0 0.0 0.00 0.00 0.00 37 1012.8
20260901225820 79 209 0.0 0.0 0.00 0.00 0.00 37 1012.8
20260901225331 79 295 0.0 0.0 0.00 0.00 0.00 37 1012.8
20260901224824 78 211 0.0 0.0 0.00 0.00 0.00 38 1012.9
20260901224333 78 271 0.0 0.0 0.00 0.00 0.00 38 1012.9
20260901223821 78 211 0.0 0.0 0.00 0.00 0.00 39 1012.9
20260901223331 78 235 0.0 0.0 0.00 0.00 0.00 39 1012.9
20260901222821 78 355 0.0 0.0 0.00 0.00 0.00 40 1013.0
20260901222331 78 279 0.0 0.0 0.00 0.00 0.00 39 1013.0
20260901221819 78 222 0.0 0.0 0.00 0.00 0.00 40 1013.2
20260901221328 78 219 0.0 0.0 0.00 0.00 0.00 39 1013.2
20260901220822 78 298 0.0 0.0 0.00 0.00 0.00 40 1013.3
20260901220332 78 224 0.0 0.0 0.00 0.00 0.00 40 1013.2
20260901215820 78 232 0.0 0.0 0.00 0.00 0.00 41 1013.4
20260901215332 78 160 0.0 0.0 0.00 0.00 0.00 42 1013.3
20260901214819 77 173 0.0 0.0 0.00 0.00 0.00 42 1013.4
20260901214328 77 273 0.0 0.0 0.00 0.00 0.00 42 1013.2
20260901213819 77 232 0.0 0.0 0.00 0.00 0.00 42 1013.4
20260901213328 77 245 0.0 0.0 0.00 0.00 0.00 43 1013.3
20260901212816 76 210 0.0 0.0 0.00 0.00 0.00 43 1013.3
20260901212332 76 125 0.0 0.0 0.00 0.00 0.00 43 1013.3
20260901211820 76 203 0.0 0.0 0.00 0.00 0.00 45 1013.3
20260901211329 75 255 0.0 0.0 0.00 0.00 0.00 44 1013.4
20260901210818 75 221 0.0 0.0 0.00 0.00 0.00 45 1013.5
20260901210328 75 184 0.0 0.0 0.00 0.00 0.00 46 1013.6
20260901205836 75 244 0.0 0.0 0.00 0.00 0.00 47 1013.5
20260901205324 74 171 0.0 0.0 0.00 0.00 0.00 47 1013.7
20260901204831 74 210 0.0 0.0 0.00 0.00 0.00 47 1013.7
20260901204320 74 279 0.0 0.0 0.00 0.00 0.00 47 1013.8
20260901203832 74 259 0.0 0.0 0.00 0.00 0.00 47 1013.8
20260901203321 74 271 0.0 0.0 0.00 0.00 0.00 48 1014.0
20260901202832 74 262 0.0 0.0 0.00 0.00 0.00 47 1014.0
20260901202323 74 259 0.0 0.0 0.00 0.00 0.00 48 1014.1
20260901201831 74 142 0.0 0.0 0.00 0.00 0.00 48 1014.0
20260901201320 74 284 0.0 0.0 0.00 0.00 0.00 48 1014.1
20260901200828 74 253 0.0 0.0 0.00 0.00 0.00 49 1014.0
20260901200317 73 258 0.0 0.0 0.00 0.00 0.00 49 1014.0
20260901195825 73 206 0.0 0.0 0.00 0.00 0.00 50 1014.0
20260901195319 72 150 0.0 0.0 0.00 0.00 0.00 50 1014.0
20260901194827 72 180 0.0 0.0 0.00 0.00 0.00 51 1014.0
20260901194316 72 268 0.0 0.0 0.00 0.00 0.00 51 1014.1
20260901193823 72 157 0.0 0.0 0.00 0.00 0.00 51 1014.2
20260901193315 72 261 0.0 0.0 0.00 0.00 0.00 51 1014.3
20260901192828 72 252 0.0 0.0 0.00 0.00 0.00 52 1014.3
20260901192317 71 272 0.0 0.0 0.00 0.00 0.00 52 1014.3
20260901191826 71 265 0.0 0.0 0.00 0.00 0.00 52 1014.3
20260901191320 71 215 0.0 0.0 0.00 0.00 0.00 53 1014.3
20260901190831 71 252 0.0 0.0 0.00 0.00 0.00 53 1014.2
20260901190323 70 268 0.0 0.0 0.00 0.00 0.00 54 1014.5
20260901185831 70 273 0.0 0.0 0.00 0.00 0.00 56 1014.5
20260901185323 70 273 0.0 0.0 0.00 0.00 0.00 56 1014.6
20260901184830 70 272 0.0 0.0 0.00 0.00 0.00 57 1014.7
20260901184322 70 273 0.0 0.0 0.00 0.00 0.00 57 1014.6
20260901183829 70 274 0.0 0.0 0.00 0.00 0.00 57 1014.7
20260901183318 70 281 0.0 0.0 0.00 0.00 0.00 57 1014.7
20260901182829 70 290 0.0 0.0 0.00 0.00 0.00 57 1014.6
20260901182319 70 244 0.0 0.0 0.00 0.00 0.00 57 1014.5
20260901181827 70 226 0.0 0.0 0.00 0.00 0.00 57 1014.6
20260901181336 70 190 0.0 0.0 0.00 0.00 0.00 57 1014.6
20260901180823 70 191 0.0 0.0 0.00 0.00 0.00 57 1014.6
20260901180332 70 231 0.0 0.0 0.00 0.00 0.00 58 1014.5
20260901175819 69 236 0.0 0.0 0.00 0.00 0.00 57 1014.5
20260901175331 69 210 0.0 0.0 0.00 0.00 0.00 58 1014.5
20260901174820 69 170 0.0 0.0 0.00 0.00 0.00 58 1014.5
20260901174333 69 154 0.0 0.0 0.00 0.00 0.00 59 1014.5
20260901173821 69 145 0.0 0.0 0.00 0.00 0.00 59 1014.5
20260901173330 69 121 0.0 0.0 0.00 0.00 0.00 59 1014.4
20260901172818 69 186 0.0 0.0 0.00 0.00 0.00 59 1014.6
20260901172327 68 160 0.0 0.0 0.00 0.00 0.00 60 1014.6
20260901171816 68 202 0.0 0.0 0.00 0.00 0.00 60 1014.6
20260901171326 68 121 0.0 0.0 0.00 0.00 0.00 61 1014.5
20260901170818 67 130 0.0 0.0 0.00 0.00 0.00 61 1014.4
20260901170328 67 133 0.0 0.0 0.00 0.00 0.00 62 1014.4
20260901165820 67 223 0.0 0.0 0.00 0.00 0.00 62 1014.4
20260901165330 67 159 0.0 0.0 0.00 0.00 0.00 61 1014.4
20260901164822 67 200 0.0 0.0 0.00 0.00 0.00 61 1014.4
20260901164333 67 248 0.0 0.0 0.00 0.00 0.00 62 1014.4
20260901163823 66 173 0.0 0.0 0.00 0.00 0.00 63 1014.3
20260901163332 66 184 0.0 0.0 0.00 0.00 0.00 63 1014.3
20260901162824 66 260 0.0 0.0 0.00 0.00 0.00 64 1014.3
20260901162333 66 259 0.0 0.0 0.00 0.00 0.00 64 1014.3
20260901161825 66 188 0.0 0.0 0.00 0.00 0.00 65 1014.2
20260901161335 65 257 0.0 0.0 0.00 0.00 0.00 65 1014.2
20260901160822 65 133 0.0 0.0 0.00 0.00 0.00 66 1014.1
20260901160331 65 208 0.0 0.0 0.00 0.00 0.00 66 1014.0
20260901155822 65 165 0.0 0.0 0.00 0.00 0.00 67 1014.0
20260901155331 64 205 0.0 0.0 0.00 0.00 0.00 68 1014.0
20260901154821 64 182 0.0 0.0 0.00 0.00 0.00 69 1013.9
20260901154330 64 180 0.0 0.0 0.00 0.00 0.00 70 1013.8
20260901153818 63 163 0.0 0.0 0.00 0.00 0.00 70 1013.6
20260901153331 63 167 0.0 0.0 0.00 0.00 0.00 71 1013.5
20260901152819 63 155 0.0 0.0 0.00 0.00 0.00 72 1013.5
20260901152329 63 164 0.0 0.0 0.00 0.00 0.00 72 1013.4
20260901151837 62 160 0.0 0.0 0.00 0.00 0.00 73 1013.4
20260901151325 62 143 0.0 0.0 0.00 0.00 0.00 73 1013.3
20260901150833 62 137 0.0 0.0 0.00 0.00 0.00 73 1013.3
20260901150322 61 150 0.0 0.0 0.00 0.00 0.00 74 1013.3
20260901145829 61 150 0.0 0.0 0.00 0.00 0.00 74 1013.3
20260901145320 61 152 0.0 0.0 0.00 0.00 0.00 74 1013.3
20260901144833 61 136 0.0 0.0 0.00 0.00 0.00 74 1013.2
20260901144321 61 159 0.0 0.0 0.00 0.00 0.00 75 1013.2
20260901143833 61 150 0.0 0.0 0.00 0.00 0.00 75 1013.2
20260901143322 61 146 0.0 0.0 0.00 0.00 0.00 75 1013.1
20260901142831 60 122 0.0 0.0 0.00 0.00 0.00 75 1012.9
20260901142321 60 123 0.0 0.0 0.00 0.00 0.00 75 1012.9
20260901141829 60 121 0.0 0.0 0.00 0.00 0.00 75 1012.8
20260901141318 60 123 0.0 0.0 0.00 0.00 0.00 75 1012.6
20260901140827 60 125 0.0 0.0 0.00 0.00 0.00 75 1012.5
20260901140320 60 125 0.0 0.0 0.00 0.00 0.00 75 1012.5
20260901135828 60 125 0.0 0.0 0.00 0.00 0.00 75 1012.4
20260901135317 60 114 0.0 0.0 0.00 0.00 0.00 75 1012.4
20260901134826 60 113 0.0 0.0 0.00 0.00 0.00 75 1012.3
20260901134316 60 150 0.0 0.0 0.00 0.00 0.00 76 1012.4
20260901133828 60 141 0.0 0.0 0.00 0.00 0.00 76 1012.3
20260901133318 60 138 0.0 0.0 0.00 0.00 0.00 76 1012.4
20260901132827 60 178 0.0 0.0 0.00 0.00 0.00 76 1012.3
20260901132321 60 153 0.0 0.0 0.00 0.00 0.00 76 1012.2
20260901131830 60 119 0.0 0.0 0.00 0.00 0.00 76 1012.2
20260901131319 60 119 0.0 0.0 0.00 0.00 0.00 76 1012.1
20260901130829 60 119 0.0 0.0 0.00 0.00 0.00 76 1012.0
20260901130318 60 124 0.0 0.0 0.00 0.00 0.00 76 1011.9
20260901125829 60 144 0.0 0.0 0.00 0.00 0.00 76 1011.9
20260901125318 60 121 0.0 0.0 0.00 0.00 0.00 76 1012.0
20260901124829 60 123 0.0 0.0 0.00 0.00 0.00 76 1011.9
20260901124321 60 123 0.0 0.0 0.00 0.00 0.00 75 1011.9
20260901123836 60 123 0.0 0.0 0.00 0.00 0.00 75 1012.0
20260901123325 60 121 0.0 0.0 0.00 0.00 0.00 75 1012.0
20260901122833 60 120 0.0 0.0 0.00 0.00 0.00 75 1011.9
20260901122325 60 127 0.0 0.0 0.00 0.00 0.00 75 1012.0
20260901121833 60 132 0.0 0.0 0.00 0.00 0.00 75 1012.0
20260901121323 60 124 0.0 0.0 0.00 0.00 0.00 75 1012.1
20260901120832 60 129 0.0 0.0 0.00 0.00 0.00 75 1012.0
20260901120325 60 128 0.0 0.0 0.00 0.00 0.00 75 1012.1
20260901115822 60 111 0.0 0.0 0.00 0.00 0.00 75 1012.0
20260901115331 60 111 0.0 0.0 0.00 0.00 0.00 75 1012.0
20260901114822 60 122 0.0 0.0 0.00 0.00 0.00 75 1011.9
20260901114331 60 121 0.0 0.0 0.00 0.00 0.00 75 1011.8
20260901113822 60 121 0.0 0.0 0.00 0.00 0.00 75 1011.7
20260901113331 60 119 0.0 0.0 0.00 0.00 0.00 76 1011.7
20260901112822 60 169 0.0 0.0 0.00 0.00 0.00 76 1011.7
20260901112330 60 121 0.0 0.0 0.00 0.00 0.00 76 1011.6
20260901111818 60 117 0.0 0.0 0.00 0.00 0.00 76 1011.5
20260901111331 60 126 0.0 0.0 0.00 0.00 0.00 76 1011.6
20260901110820 60 136 0.0 0.0 0.00 0.00 0.00 76 1011.6
20260901110329 60 119 0.0 0.0 0.00 0.00 0.00 76 1011.6
20260901105836 60 125 0.0 0.0 0.00 0.00 0.00 76 1011.7
20260901105325 60 115 0.0 0.0 0.00 0.00 0.00 76 1011.6
20260901104833 60 119 0.0 0.0 0.00 0.00 0.00 76 1011.6
20260901104324 60 118 0.0 0.0 0.00 0.00 0.00 76 1011.5
20260901103832 60 118 0.0 0.0 0.00 0.00 0.00 76 1011.4
20260901103321 60 117 0.0 0.0 0.00 0.00 0.00 76 1011.4
20260901102833 60 117 0.0 0.0 0.00 0.00 0.00 76 1011.4
20260901102322 60 117 0.0 0.0 0.00 0.00 0.00 76 1011.3
20260901101830 60 122 0.0 0.0 0.00 0.00 0.00 76 1011.4
20260901101319 60 121 0.0 0.0 0.00 0.00 0.00 76 1011.4
20260901100831 60 128 0.0 0.0 0.00 0.00 0.00 76 1011.5
20260901100319 60 114 0.0 0.0 0.00 0.00 0.00 76 1011.5
20260901095828 60 125 0.0 0.0 0.00 0.00 0.00 76 1011.5
20260901095317 60 127 0.0 0.0 0.00 0.00 0.00 76 1011.5
20260901094828 60 121 0.0 0.0 0.00 0.00 0.00 76 1011.5
20260901094323 60 121 0.0 0.0 0.00 0.00 0.00 76 1011.5
20260901093830 60 122 0.0 0.0 0.00 0.00 0.00 76 1011.5
20260901093322 60 121 0.0 0.0 0.00 0.00 0.00 76 1011.5
20260901092831 60 160 0.0 0.0 0.00 0.00 0.00 76 1011.5
20260901092321 60 115 0.0 0.0 0.00 0.00 0.00 76 1011.5
20260901091830 60 115 0.0 0.0 0.00 0.00 0.00 76 1011.4
20260901091320 60 120 0.0 0.0 0.00 0.00 0.00 76 1011.5
20260901090829 60 165 0.0 0.0 0.00 0.00 0.00 76 1011.5
20260901090322 60 125 0.0 0.0 0.00 0.00 0.00 76 1011.7
20260901085834 60 192 0.0 0.0 0.00 0.00 0.00 76 1011.6
20260901085323 60 124 0.0 0.0 0.00 0.00 0.00 76 1011.7
20260901084832 60 119 0.0 0.0 0.00 0.00 0.00 76 1011.6
20260901084322 60 127 0.0 0.0 0.00 0.00 0.00 76 1011.6
20260901083831 60 113 0.0 0.0 0.00 0.00 0.00 76 1011.6
20260901083320 60 126 0.0 0.0 0.00 0.00 0.00 76 1011.5
20260901082832 60 118 0.0 0.0 0.00 0.00 0.00 76 1011.6
20260901082320 60 134 0.0 0.0 0.00 0.00 0.00 76 1011.5
20260901081832 60 126 0.0 0.0 0.00 0.00 0.00 76 1011.6
20260901081323 60 133 0.0 0.0 0.00 0.00 0.00 76 1011.5
20260901080831 60 152 0.0 0.0 0.00 0.00 0.00 76 1011.5
20260901080323 60 129 0.0 0.0 0.00 0.00 0.00 76 1011.6
20260901075831 60 111 0.0 0.0 0.00 0.00 0.00 76 1011.6
20260901075323 60 110 0.0 0.0 0.00 0.00 0.00 76 1011.6
20260901074832 60 119 0.0 0.0 0.00 0.00 0.00 76 1011.6
20260901074321 60 110 0.0 0.0 0.00 0.00 0.00 76 1011.6
20260901073830 60 109 0.0 0.0 0.00 0.00 0.00 76 1011.6
20260901073324 60 123 0.0 0.0 0.00 0.00 0.00 76 1011.6
20260901072833 60 126 0.0 0.0 0.00 0.00 0.00 76 1011.5
20260901072323 60 145 0.0 0.0 0.00 0.00 0.00 76 1011.5
20260901071831 60 130 0.0 0.0 0.00 0.00 0.00 76 1011.5
20260901071321 60 133 0.0 0.0 0.00 0.00 0.00 76 1011.4